Location: ???????
(55.4362°N, 38.1183°E)
Time: 16:22:43
(UTC+00:00)

FALCON 9 DEB - Pass Details

Date: 30 October 2021
Orbit: 344 x 356 km, 53.0° (Epoch: 29 November)

Event Time Altitude Azimuth Distance (km) Brightness Sun altitude
Rises 14:56:25 0° 210° (SSW) 2,165 7.3 -9.4°
Reaches altitude 10° 14:58:54 10° 188° (S) 1,331 5.8 -9.8°
Maximum altitude 15:00:50 16° 147° (SSE) 1,040 4.8 -10.0°
Enters shadow 15:02:18 12° 114° (ESE) 1,223 4.9 -10.2°
